Погода в Венгерове

Россия / Новосибирская область     55°41′03″N   76°44′52″E
темп.,
°C
ветер,
м/с
пор.,
м/с
влажн.,
%
обл.,
%
осадки,
мм/ч
давл.,
гПа
погр.,
м
9 мая, вс
вс901:00+13св37585 0.0 1018127
04:00+10всв35565 0.0 101888
07:00+9всв37615 0.0 1019146
10:00+12всв56523 0.0 1020550
13:00+15св66405 0.0 10201009
16:00+16всв67378 0.0 10191342
19:00+15всв7833100 0.0 10191477
22:00+12всв51043100 0.0 1021365
10 мая, пн
пн1001:00+10всв61349100 0.0 1022487
04:00+7всв61258100 0.0 1022422
07:00+6всв61262100 0.0 1023423
10:00+10в71047100 0.0 1024990
13:00+13всв7839100 0.0 10231484
16:00+16всв673578 0.0 10221769
19:00+16св78335 0.0 10222042
22:00+11св49495 0.0 1023188
11 мая, вт
вт1101:00+8ссв49585 0.0 1023193
04:00+6ссв497079 0.0 1023233
07:00+6ссв497273 0.0 1024315
10:00+11ссв68495 0.0 10241369
13:00+15св67370 0.0 10241943
16:00+16ссв56335 0.0 10242077
19:00+17ссв56315 0.0 10242184
22:00+12с34474 0.0 102553
12 мая, ср
ср1201:00+10ссв34520 0.0 102544
04:00+8ссв225765 0.0 102510
07:00+8зсз1158100 0.0 102510
10:00+14з3441100 0.0 1024479
13:00+18з4532100 0.0 10221280
16:00+18зсз564150 0.0 10201587
19:00+17зсз4652100 0.0 10191096
22:00+13с7107082 0.0 1020615
13 мая, чт
чт1301:00+11с6107597 0.0 1021668
04:00+7с510832 0.0 1021356
07:00+7ссз498695 0.0 1022408
10:00+11с684756 0.0 1022893
13:00+14с67385 0.0 10211607
16:00+17ссз572524 0.0 10201982
19:00+17сз572727 0.0 10191948
22:00+12ссз51071100 0.1 1020532